Simultaneous Nadir Overpasses (SNOs) Predictions

Prediction of SNOs between GOES-16 and AQUA Satellite Orbit:

Table of predicted SNOs for the next 14.0 days since TLE Epoch: 11/16/2024
Index Date Time (GOES-16) GOES-16 Lat,Lon AQUA Lat,Lon Distance(km) Time Diff (sec)
1 11/16/2024 19:16:44 -0.01, -75.19 0.40, -73.29 216.47 80
2 11/17/2024 07:36:22 0.00, -75.18 0.64, -78.03 324.62 80
3 11/19/2024 07:15:14 0.01, -75.19 -0.33, -73.51 189.55 80
4 11/19/2024 19:35:01 -0.00, -75.19 -0.66, -78.30 353.51 80
5 11/21/2024 19:19:11 -0.00, -75.21 0.27, -73.77 162.50 80
6 11/22/2024 07:38:49 0.00, -75.21 0.72, -78.52 377.51 80
7 11/24/2024 07:17:38 0.00, -75.23 -0.24, -73.99 140.15 80
8 11/24/2024 19:37:24 -0.00, -75.24 -0.76, -78.77 402.18 80
9 11/26/2024 19:21:32 -0.00, -75.27 0.23, -74.24 117.14 80
10 11/27/2024 07:41:08 0.00, -75.28 0.79, -78.99 421.82 80
11 11/29/2024 07:19:54 0.00, -75.31 -0.16, -74.44 98.41 80
12 11/29/2024 19:39:39 0.00, -75.32 -0.84, -79.22 443.59 80
